Hourly Weather Al Jazirah al Hamra

Today, 16 May, Sunday

Time Temperature Precipitation Wind Pressure Humidity
00:00 +32°C° 0 mm 2 mps 751 mmHg 32%
01:00 +32°C° 0 mm 2 mps 751 mmHg 29%
02:00 +32°C° 0 mm 2 mps 751 mmHg 28%
03:00 +32°C° 0 mm 2 mps 751 mmHg 26%
04:00 +34°C° 0 mm 3 mps 751 mmHg 25%
05:00 +35°C° 0 mm 2 mps 751 mmHg 23%
06:00 +36°C° 0 mm 2 mps 752 mmHg 21%
07:00 +36°C° 0 mm 1 mps 752 mmHg 19%
08:00 +39°C° 0 mm 2 mps 752 mmHg 18%
09:00 +42°C° 0 mm 3 mps 752 mmHg 16%
10:00 +44°C° 0 mm 3 mps 752 mmHg 15%
11:00 +43°C° 0 mm 4 mps 752 mmHg 17%
12:00 +43°C° 0 mm 5 mps 752 mmHg 19%
13:00 +42°C° 0 mm 6 mps 752 mmHg 22%
14:00 +42°C° 0 mm 5 mps 752 mmHg 21%
15:00 +42°C° 0 mm 4 mps 751 mmHg 20%
16:00 +40°C° 0 mm 3 mps 751 mmHg 20%
17:00 +38°C° 0 mm 2 mps 751 mmHg 27%
18:00 +36°C° 0 mm 2 mps 752 mmHg 35%
19:00 +34°C° 0 mm 2 mps 752 mmHg 42%
20:00 +32°C° 0 mm 1 mps 752 mmHg 45%
21:00 +31°C° 0 mm 1 mps 752 mmHg 47%
22:00 +30°C° 0 mm 1 mps 753 mmHg 50%
23:00 +30°C° 0 mm 1 mps 752 mmHg 50%

Tomorrow, 17 May, Monday

Time Temperature Precipitation Wind Pressure Humidity
00:00 +30°C° 0 mm 2 mps 752 mmHg 50%
01:00 +29°C° 0 mm 2 mps 752 mmHg 49%
02:00 +29°C° 0 mm 2 mps 752 mmHg 46%
03:00 +29°C° 0 mm 2 mps 752 mmHg 43%
04:00 +28°C° 0 mm 2 mps 752 mmHg 40%
05:00 +30°C° 0 mm 2 mps 752 mmHg 34%
06:00 +32°C° 0 mm 2 mps 753 mmHg 29%
07:00 +34°C° 0 mm 2 mps 753 mmHg 23%
08:00 +37°C° 0 mm 2 mps 753 mmHg 20%
09:00 +39°C° 0 mm 2 mps 753 mmHg 17%
10:00 +41°C° 0 mm 2 mps 753 mmHg 14%
11:00 +42°C° 0 mm 3 mps 753 mmHg 14%
12:00 +43°C° 0 mm 4 mps 753 mmHg 14%
13:00 +43°C° 0 mm 4 mps 752 mmHg 14%
14:00 +43°C° 0 mm 4 mps 752 mmHg 14%
15:00 +43°C° 0 mm 4 mps 751 mmHg 14%
16:00 +43°C° 0 mm 4 mps 751 mmHg 14%
17:00 +39°C° 0 mm 3 mps 751 mmHg 19%
18:00 +37°C° 0 mm 3 mps 751 mmHg 25%
19:00 +35°C° 0 mm 2 mps 751 mmHg 30%
20:00 +34°C° 0 mm 2 mps 752 mmHg 30%
21:00 +32°C° 0 mm 2 mps 752 mmHg 30%
22:00 +32°C° 0 mm 1 mps 752 mmHg 29%
23:00 +31°C° 0 mm 1 mps 752 mmHg 33%

Day after tomorrow, 18 May, Tuesday

Time Temperature Precipitation Wind Pressure Humidity
00:00 +31°C° 0 mm 1 mps 752 mmHg 38%
01:00 +30°C° 0 mm 1 mps 752 mmHg 42%
02:00 +29°C° 0 mm 1 mps 752 mmHg 43%
03:00 +29°C° 0 mm 1 mps 751 mmHg 45%
04:00 +27°C° 0 mm 0 mps 751 mmHg 46%
05:00 +30°C° 0 mm 1 mps 752 mmHg 41%
06:00 +32°C° 0 mm 1 mps 752 mmHg 36%
07:00 +33°C° 0 mm 1 mps 753 mmHg 31%
08:00 +36°C° 0 mm 1 mps 753 mmHg 25%
09:00 +39°C° 0 mm 1 mps 753 mmHg 20%
10:00 +41°C° 0 mm 2 mps 753 mmHg 14%
11:00 +42°C° 0 mm 2 mps 753 mmHg 12%
12:00 +45°C° 0 mm 3 mps 752 mmHg 11%
13:00 +46°C° 0 mm 3 mps 752 mmHg 9%
14:00 +45°C° 0 mm 4 mps 751 mmHg 10%
15:00 +45°C° 0 mm 4 mps 751 mmHg 10%
16:00 +45°C° 0 mm 5 mps 751 mmHg 10%
17:00 +42°C° 0 mm 4 mps 751 mmHg 14%
18:00 +39°C° 0 mm 3 mps 751 mmHg 17%
19:00 +37°C° 0 mm 2 mps 751 mmHg 20%
20:00 +37°C° 0 mm 2 mps 751 mmHg 20%
21:00 +36°C° 0 mm 3 mps 752 mmHg 21%
22:00 +36°C° 0 mm 3 mps 752 mmHg 21%
23:00 +35°C° 0 mm 3 mps 752 mmHg 23%

19 May, Wednesday

Time Temperature Precipitation Wind Pressure Humidity
00:00 +35°C° 0 mm 2 mps 752 mmHg 24%
01:00 +34°C° 0 mm 2 mps 751 mmHg 26%
02:00 +34°C° 0 mm 2 mps 751 mmHg 23%
03:00 +34°C° 0 mm 2 mps 751 mmHg 21%
04:00 +34°C° 0 mm 2 mps 751 mmHg 18%
05:00 +35°C° 0 mm 2 mps 751 mmHg 16%
06:00 +37°C° 0 mm 3 mps 752 mmHg 14%
07:00 +38°C° 0 mm 3 mps 752 mmHg 12%
08:00 +40°C° 0 mm 3 mps 752 mmHg 11%
09:00 +43°C° 0 mm 3 mps 752 mmHg 10%
10:00 +46°C° 0 mm 3 mps 752 mmHg 9%
11:00 +47°C° 0 mm 4 mps 752 mmHg 10%
12:00 +47°C° 0 mm 4 mps 752 mmHg 12%
13:00 +47°C° 0 mm 5 mps 751 mmHg 14%
14:00 +45°C° 0 mm 4 mps 751 mmHg 15%
15:00 +44°C° 0 mm 4 mps 751 mmHg 17%
16:00 +44°C° 0 mm 4 mps 751 mmHg 18%
17:00 +40°C° 0 mm 3 mps 751 mmHg 26%
18:00 +38°C° 0 mm 3 mps 751 mmHg 34%
19:00 +35°C° 0 mm 3 mps 751 mmHg 42%
20:00 +35°C° 0 mm 2 mps 751 mmHg 43%
21:00 +34°C° 0 mm 2 mps 752 mmHg 43%
22:00 +34°C° 0 mm 2 mps 752 mmHg 43%
23:00 +34°C° 0 mm 3 mps 752 mmHg 40%

20 May, Thursday

Time Temperature Precipitation Wind Pressure Humidity
00:00 +34°C° 0 mm 3 mps 751 mmHg 37%
01:00 +34°C° 0 mm 4 mps 751 mmHg 34%
02:00 +34°C° 0 mm 4 mps 751 mmHg 33%
03:00 +34°C° 0 mm 4 mps 751 mmHg 31%
04:00 +34°C° 0 mm 4 mps 750 mmHg 30%
05:00 +35°C° 0 mm 4 mps 751 mmHg 27%
06:00 +36°C° 0 mm 4 mps 751 mmHg 24%
07:00 +37°C° 0 mm 4 mps 752 mmHg 22%
08:00 +40°C° 0 mm 4 mps 752 mmHg 19%
09:00 +42°C° 0 mm 4 mps 752 mmHg 16%
10:00 +45°C° 0 mm 4 mps 752 mmHg 14%
11:00 +46°C° 0 mm 5 mps 752 mmHg 16%
12:00 +46°C° 0 mm 5 mps 751 mmHg 18%
13:00 +47°C° 0 mm 5 mps 751 mmHg 21%
14:00 +46°C° 0 mm 5 mps 751 mmHg 23%
15:00 +44°C° 0 mm 4 mps 751 mmHg 25%
16:00 +43°C° 0 mm 3 mps 751 mmHg 28%
17:00 +40°C° 0 mm 3 mps 751 mmHg 34%
18:00 +38°C° 0 mm 3 mps 751 mmHg 40%
19:00 +36°C° 0 mm 3 mps 751 mmHg 46%
20:00 +35°C° 0 mm 3 mps 751 mmHg 51%
21:00 +34°C° 0 mm 3 mps 751 mmHg 55%
22:00 +33°C° 0 mm 3 mps 752 mmHg 60%
23:00 +33°C° 0 mm 3 mps 752 mmHg 56%

21 May, Friday

Time Temperature Precipitation Wind Pressure Humidity
00:00 +33°C° 0 mm 3 mps 751 mmHg 52%
01:00 +33°C° 0 mm 3 mps 751 mmHg 48%
02:00 +34°C° 0 mm 4 mps 751 mmHg 42%
03:00 +34°C° 0 mm 4 mps 751 mmHg 35%
04:00 +35°C° 0 mm 4 mps 751 mmHg 29%
05:00 +36°C° 0 mm 4 mps 752 mmHg 26%
06:00 +37°C° 0 mm 3 mps 752 mmHg 23%
07:00 +38°C° 0 mm 2 mps 753 mmHg 20%
08:00 +40°C° 0 mm 3 mps 753 mmHg 18%
09:00 +44°C° 0 mm 4 mps 753 mmHg 15%
10:00 +47°C° 0 mm 4 mps 753 mmHg 13%
11:00 +47°C° 0 mm 5 mps 753 mmHg 11%
12:00 +48°C° 0 mm 5 mps 753 mmHg 10%
13:00 +48°C° 0 mm 5 mps 752 mmHg 9%
14:00 +48°C° 0 mm 5 mps 752 mmHg 10%
15:00 +47°C° 0 mm 4 mps 752 mmHg 10%
16:00 +47°C° 0 mm 4 mps 751 mmHg 11%
17:00 +44°C° 0 mm 4 mps 751 mmHg 13%
18:00 +42°C° 0 mm 3 mps 751 mmHg 14%
19:00 +39°C° 0 mm 3 mps 751 mmHg 16%
20:00 +38°C° 0 mm 2 mps 752 mmHg 18%
21:00 +37°C° 0 mm 2 mps 752 mmHg 20%
22:00 +36°C° 0 mm 2 mps 752 mmHg 22%
23:00 +35°C° 0 mm 2 mps 752 mmHg 24%
Show more